GW0157 Weather Reports


time (UTC)temp
F
wind
direction
speed
knots
gust
knots
rain 1hr
in
rain 24hr
in
rain mn
in
humidity
%
barometer
mb
20260906151958 73 62 0.9 2.6 0.00 0.00 0.00 90 1050.3
20260906151454 73 127 0.9 2.6 0.00 0.00 0.00 91 1050.4
20260906150949 73 66 1.7 1.7 0.00 0.00 0.00 92 1050.2
20260906150444 72 33 0.0 2.6 0.00 0.00 0.00 92 1050.3
20260906145943 72 2 1.7 2.6 0.00 0.00 0.00 92 1050.2
20260906145438 72 335 0.9 2.6 0.00 0.00 0.00 91 1050.4
20260906144932 72 56 1.7 2.6 0.00 0.00 0.00 92 1050.2
20260906144427 71 324 0.9 1.7 0.00 0.00 0.00 91 1050.4
20260906143923 71 280 0.9 1.7 0.00 0.00 0.00 92 1050.2
20260906143418 71 16 0.9 1.7 0.00 0.00 0.00 92 1050.2
20260906142914 70 139 1.7 1.7 0.00 0.00 0.00 93 1050.3
20260906142413 70 8 0.9 0.9 0.00 0.00 0.00 92 1050.4
20260906141908 70 16 0.0 0.9 0.00 0.00 0.00 93 1050.2
20260906141408 69 22 0.0 0.9 0.00 0.00 0.00 93 1050.2
20260906140902 68 27 0.0 0.9 0.00 0.00 0.00 94 1050.4
20260906140357 68 192 2.6 4.3 0.00 0.00 0.00 94 1050.1
20260906135854 68 24 0.0 0.9 0.00 0.00 0.00 96 1050.3
20260906135349 67 43 0.9 1.7 0.00 0.00 0.00 97 1050.2
20260906134844 66 17 0.9 1.7 0.00 0.00 0.00 98 1050.3
20260906134339 66 28 0.0 0.9 0.00 0.00 0.00 99 1050.3
20260906133835 65 359 0.0 0.9 0.00 0.00 0.00 99 1050.3
20260906133330 65 12 0.0 0.9 0.00 0.00 0.00 99 1050.0
20260906132826 64 0 0.9 0.9 0.00 0.00 0.00 99 1050.3
20260906132320 64 9 0.9 0.9 0.00 0.00 0.00 99 1050.2
20260906131816 64 15 0.0 1.7 0.00 0.00 0.00 99 1050.3
20260906131306 64 355 0.9 0.9 0.00 0.00 0.00 99 1050.2
20260906130801 64 26 0.0 0.9 0.00 0.00 0.00 99 1050.3
20260906130256 63 33 0.0 0.9 0.00 0.00 0.00 99 1050.2
20260906125755 63 24 0.0 0.0 0.00 0.00 0.00 99 1050.3
20260906125252 63 18 0.0 0.9 0.00 0.00 0.00 99 1050.1
20260906124747 63 23 0.0 0.0 0.00 0.00 0.00 99 1050.2
20260906124243 62 23 0.0 0.0 0.00 0.00 0.00 99 1050.1
20260906123741 61 24 0.0 0.0 0.00 0.00 0.00 99 1049.9
20260906123237 61 24 0.0 0.0 0.00 0.00 0.00 99 1049.9
20260906122736 61 24 0.0 0.0 0.00 0.00 0.00 99 1050.0
20260906122231 61 24 0.0 0.0 0.00 0.00 0.00 99 1049.9
20260906121728 60 24 0.0 0.0 0.00 0.00 0.00 99 1049.9
20260906121224 60 24 0.0 0.0 0.00 0.00 0.00 99 1049.6
20260906120719 60 24 0.0 0.0 0.00 0.00 0.00 99 1049.8
20260906120211 60 24 0.0 0.0 0.00 0.00 0.00 99 1050.0
20260906115707 60 24 0.0 0.0 0.00 0.00 0.00 99 1049.8
20260906115201 60 24 0.0 0.0 0.00 0.00 0.00 99 1049.8
20260906114701 60 24 0.0 0.0 0.00 0.00 0.00 99 1049.8
20260906114156 60 24 0.0 0.0 0.00 0.00 0.00 99 1049.5
20260906113656 60 25 0.0 0.0 0.00 0.00 0.00 99 1049.5
20260906113155 60 25 0.0 0.0 0.00 0.00 0.00 99 1049.7
20260906112654 59 26 0.0 0.0 0.00 0.00 0.00 99 1049.6
20260906112152 59 27 0.0 0.0 0.00 0.00 0.00 99 1049.5
20260906111651 59 27 0.0 0.0 0.00 0.00 0.00 99 1049.3
20260906111146 59 36 0.0 0.9 0.00 0.00 0.00 99 1049.0
20260906110641 59 29 0.0 0.0 0.00 0.00 0.00 99 1048.9
20260906110136 59 21 0.0 0.0 0.00 0.00 0.00 99 1048.8
20260906105630 60 21 0.0 0.0 0.00 0.00 0.00 99 1048.9
20260906105127 60 21 0.0 0.0 0.00 0.00 0.00 99 1048.7
20260906104626 60 22 0.0 0.0 0.00 0.00 0.00 99 1048.7
20260906104125 60 22 0.0 0.0 0.00 0.00 0.00 99 1048.7
20260906103623 60 22 0.0 0.0 0.00 0.00 0.00 99 1048.8
20260906103119 60 13 0.0 0.0 0.00 0.00 0.00 99 1048.9
20260906102614 60 23 0.0 0.0 0.00 0.00 0.00 99 1048.8
20260906102108 59 23 0.0 0.0 0.00 0.00 0.00 99 1048.8
20260906101602 59 23 0.0 0.0 0.00 0.00 0.00 99 1048.9
20260906101057 60 23 0.0 0.0 0.00 0.00 0.00 99 1048.6
20260906100553 60 23 0.0 0.0 0.00 0.00 0.00 99 1048.9
20260906100048 60 23 0.0 0.0 0.00 0.00 0.00 99 1048.7
20260906095547 60 23 0.0 0.0 0.00 0.00 0.00 99 1048.7
20260906095043 61 23 0.0 0.0 0.00 0.00 0.00 99 1048.9
20260906094542 61 22 0.0 0.0 0.00 0.00 0.00 99 1048.6
20260906094038 61 23 0.0 0.0 0.00 0.00 0.00 99 1048.6
20260906093533 61 22 0.0 0.0 0.00 0.00 0.00 99 1048.6
20260906093028 61 23 0.0 0.0 0.00 0.00 0.00 99 1048.9
20260906092523 61 24 0.0 0.0 0.00 0.00 0.00 99 1048.9
20260906092018 61 23 0.0 0.0 0.00 0.00 0.00 99 1048.9
20260906091514 61 22 0.0 0.0 0.00 0.00 0.00 99 1048.8
20260906091011 61 22 0.0 0.0 0.00 0.00 0.00 99 1048.8
20260906090510 61 23 0.0 0.0 0.00 0.00 0.00 99 1048.7
20260906090005 61 23 0.0 0.0 0.00 0.00 0.00 99 1048.5
20260906085504 61 23 0.0 0.0 0.00 0.00 0.00 99 1048.7
20260906085004 62 23 0.0 0.0 0.00 0.00 0.00 99 1048.7
20260906084458 61 23 0.0 0.0 0.00 0.00 0.00 99 1048.8
20260906083957 62 15 0.0 0.0 0.00 0.00 0.00 99 1048.7
20260906083453 61 17 0.0 0.0 0.00 0.00 0.00 99 1048.6
20260906082952 61 19 0.0 0.0 0.00 0.00 0.00 99 1048.8
20260906082448 61 19 0.0 0.0 0.00 0.00 0.00 99 1048.8
20260906081943 61 19 0.0 0.0 0.00 0.00 0.00 99 1048.7
20260906081438 61 20 0.0 0.0 0.00 0.00 0.00 99 1048.6
20260906080934 61 20 0.0 0.0 0.00 0.00 0.00 99 1048.5
20260906080431 61 20 0.0 0.0 0.00 0.00 0.00 99 1048.5
20260906075931 61 20 0.0 0.0 0.00 0.00 0.00 99 1048.3
20260906075426 62 20 0.0 0.0 0.00 0.00 0.00 99 1048.6
20260906074920 62 20 0.0 0.0 0.00 0.00 0.00 99 1048.4
20260906074415 62 20 0.0 0.0 0.00 0.00 0.00 99 1048.3
20260906073914 62 20 0.0 0.0 0.00 0.00 0.00 99 1048.5
20260906073409 62 20 0.0 0.0 0.00 0.00 0.00 99 1048.6
20260906072905 62 20 0.0 0.0 0.00 0.00 0.00 99 1048.5
20260906072401 63 25 0.0 0.0 0.00 0.00 0.00 99 1048.6
20260906071856 62 25 0.0 0.0 0.00 0.00 0.00 99 1048.7
20260906071351 62 32 0.0 0.0 0.00 0.00 0.00 99 1048.7
20260906070847 62 32 0.0 0.0 0.00 0.00 0.00 99 1048.8
20260906070343 62 32 0.0 0.0 0.00 0.00 0.00 99 1048.9
20260906065838 62 34 0.0 0.0 0.00 0.00 0.00 99 1049.1
20260906065333 62 16 0.0 0.0 0.00 0.00 0.00 99 1048.9
20260906064829 63 16 0.0 0.0 0.00 0.00 0.00 99 1048.9
20260906064325 63 16 0.0 0.0 0.00 0.00 0.00 99 1048.7
20260906063825 63 16 0.0 0.0 0.00 0.00 0.00 99 1049.1
20260906063320 63 16 0.0 0.0 0.00 0.00 0.00 99 1049.1
20260906062815 63 16 0.0 0.0 0.00 0.00 0.00 99 1048.9
20260906062314 64 16 0.0 0.0 0.00 0.00 0.00 99 1049.0
20260906061810 63 16 0.0 0.0 0.00 0.00 0.00 99 1048.9
20260906061306 63 16 0.0 0.0 0.00 0.00 0.00 99 1049.1
20260906060801 63 16 0.0 0.0 0.00 0.00 0.00 99 1048.9
20260906060259 63 16 0.0 0.0 0.00 0.00 0.00 99 1049.0
20260906055754 63 16 0.0 0.0 0.00 0.00 0.00 99 1048.9
20260906055249 64 16 0.0 0.0 0.00 0.00 0.00 99 1048.8
20260906054745 64 16 0.0 0.0 0.00 0.00 0.00 99 1048.9
20260906054240 64 16 0.0 0.0 0.00 0.00 0.00 99 1048.7
20260906053737 64 15 0.0 0.9 0.00 0.00 0.00 99 1048.7
20260906053232 64 17 0.0 0.0 0.00 0.00 0.00 99 1048.8
20260906052727 64 17 0.0 0.0 0.00 0.00 0.00 99 1048.8
20260906052223 65 17 0.0 0.0 0.00 0.00 0.00 99 1048.7
20260906051720 65 16 0.0 0.0 0.00 0.00 0.00 99 1049.0
20260906051219 65 17 0.0 0.0 0.00 0.00 0.00 99 1048.7
20260906050715 65 17 0.0 0.0 0.00 0.00 0.00 99 1048.8
20260906050210 65 24 0.0 0.0 0.00 0.00 0.00 99 1048.9
20260906045708 66 23 0.0 0.0 0.00 0.00 0.00 99 1048.7
20260906045203 66 25 0.0 0.0 0.00 0.00 0.00 98 1048.6
20260906044659 66 18 0.0 0.0 0.00 0.00 0.00 98 1048.6
20260906044154 66 18 0.0 0.0 0.00 0.00 0.00 98 1048.6
20260906043650 66 18 0.0 0.0 0.00 0.00 0.00 98 1048.6
20260906043146 67 18 0.0 0.0 0.00 0.00 0.00 97 1048.6
20260906042645 67 18 0.0 0.0 0.00 0.00 0.00 97 1048.5
20260906042139 67 17 0.0 0.0 0.00 0.00 0.00 97 1048.5
20260906041635 67 17 0.0 0.0 0.00 0.00 0.00 97 1048.2
20260906041130 68 15 0.0 0.9 0.00 0.00 0.00 97 1048.1
20260906040626 68 24 0.0 0.0 0.00 0.00 0.00 96 1048.4
20260906040121 68 25 0.0 0.0 0.00 0.00 0.00 96 1048.1
20260906035616 68 10 0.0 0.9 0.00 0.00 0.00 96 1048.0
20260906035112 68 18 0.9 0.9 0.00 0.00 0.00 96 1047.9
20260906034612 69 348 0.9 0.9 0.00 0.00 0.00 96 1047.9
20260906034106 69 20 0.0 0.0 0.00 0.00 0.00 96 1048.2
20260906033602 69 20 0.0 1.7 0.00 0.00 0.00 96 1048.0
20260906033057 69 11 0.0 0.9 0.00 0.00 0.00 95 1048.0
20260906032553 69 15 0.0 0.9 0.00 0.00 0.00 95 1048.2
20260906032048 69 356 0.9 0.9 0.00 0.00 0.00 95 1047.8
20260906031543 70 356 0.9 0.9 0.00 0.00 0.00 94 1047.8
20260906031039 70 326 0.0 0.9 0.00 0.00 0.00 94 1047.8
20260906030538 70 323 0.9 1.7 0.00 0.00 0.00 94 1047.8
20260906030037 70 301 1.7 2.6 0.00 0.00 0.00 94 1047.9
20260906025532 71 33 0.9 2.6 0.00 0.00 0.00 93 1047.6
20260906025030 71 353 0.9 1.7 0.00 0.00 0.00 93 1047.6
20260906024525 71 267 0.9 1.7 0.00 0.00 0.00 93 1047.4
20260906024020 71 327 2.6 4.3 0.00 0.00 0.00 92 1047.7
20260906023516 72 29 1.7 4.3 0.00 0.00 0.00 92 1047.4
20260906023011 72 318 0.9 1.7 0.00 0.00 0.00 92 1047.2
20260906022506 72 240 2.6 2.6 0.00 0.00 0.00 93 1047.1
20260906022001 72 5 0.0 5.2 0.00 0.00 0.00 93 1047.1
20260906021456 72 346 0.9 1.7 0.00 0.00 0.00 94 1047.0
20260906020951 72 357 0.0 0.9 0.00 0.00 0.00 94 1047.1
20260906020445 72 9 0.0 0.9 0.00 0.00 0.00 94 1046.7
20260906015944 72 337 0.9 1.7 0.00 0.00 0.00 94 1046.8
20260906015444 72 15 0.0 0.9 0.00 0.00 0.00 94 1046.6
20260906014944 72 344 0.9 1.7 0.00 0.00 0.00 94 1046.5
20260906014438 72 346 0.9 1.7 0.00 0.00 0.00 94 1046.5
20260906013934 72 11 0.0 0.9 0.00 0.00 0.00 95 1046.5
20260906013430 71 25 0.0 0.0 0.00 0.00 0.00 95 1046.3
20260906012926 72 26 0.0 0.9 0.00 0.00 0.00 94 1046.3
20260906012425 72 11 0.0 0.9 0.00 0.00 0.00 94 1046.1
20260906011924 71 345 0.9 0.9 0.00 0.00 0.00 95 1046.2
20260906011420 71 15 0.0 0.0 0.00 0.00 0.00 95 1046.2
20260906010915 71 12 0.9 0.9 0.00 0.00 0.00 95 1046.4
20260906010411 71 8 0.0 0.9 0.00 0.00 0.00 95 1046.1
20260906005907 71 9 0.9 0.9 0.00 0.00 0.00 96 1046.3
20260906005406 71 21 0.0 0.0 0.00 0.00 0.00 95 1046.3
20260906004904 71 26 0.0 0.0 0.00 0.00 0.00 95 1046.2
20260906004359 71 14 0.0 0.9 0.00 0.00 0.00 95 1046.3
20260906003854 71 19 0.0 0.0 0.00 0.00 0.00 95 1046.3
20260906003349 71 22 0.0 0.0 0.00 0.00 0.00 95 1046.2
20260906002845 71 22 0.0 0.0 0.00 0.00 0.00 95 1046.2
20260906002344 71 22 0.0 0.0 0.00 0.00 0.00 95 1046.3
20260906001840 71 22 0.0 0.0 0.00 0.00 0.00 94 1046.7
20260906001336 72 22 0.0 0.0 0.00 0.00 0.00 94 1046.6
20260906000830 72 22 0.0 0.0 0.00 0.00 0.00 94 1046.5
20260906000326 72 21 0.0 0.0 0.00 0.00 0.00 93 1046.6
20260905235825 72 23 0.0 0.0 0.00 0.00 0.00 94 1046.4
20260905235320 73 23 0.0 0.0 0.00 0.00 0.00 93 1046.2
20260905234815 73 23 0.0 0.0 0.00 0.00 0.00 93 1046.5
20260905234310 73 23 0.0 0.0 0.00 0.00 0.00 93 1046.5
20260905233805 73 23 0.0 0.0 0.00 0.00 0.00 92 1046.3
20260905233300 74 23 0.0 0.0 0.00 0.00 0.00 92 1046.5
20260905232759 75 23 0.0 0.0 0.00 0.00 0.00 90 1046.4
20260905232255 76 23 0.0 0.9 0.00 0.00 0.00 89 1046.3
20260905231751 77 24 0.0 0.0 0.00 0.00 0.00 87 1046.3
20260905231246 77 19 0.0 0.9 0.00 0.00 0.00 85 1046.2
20260905230742 78 319 1.7 1.7 0.00 0.00 0.00 83 1046.1
20260905230239 78 23 0.9 1.7 0.00 0.00 0.00 83 1046.2
20260905225734 78 18 0.0 0.9 0.00 0.00 0.00 82 1046.5
20260905225229 79 268 0.9 2.6 0.00 0.00 0.00 81 1046.8
20260905224728 80 312 1.7 1.7 0.00 0.00 0.00 80 1046.5
20260905224224 80 62 0.0 1.7 0.00 0.00 0.00 82 1046.4
20260905223720 79 27 0.0 0.9 0.00 0.00 0.00 83 1046.4
20260905223217 79 12 0.9 1.7 0.00 0.00 0.00 83 1046.3
20260905222712 79 25 0.0 4.3 0.00 0.00 0.00 82 1046.1
20260905222211 79 240 1.7 2.6 0.00 0.00 0.00 82 1046.2
20260905221707 79 40 0.9 1.7 0.00 0.00 0.00 82 1046.2
20260905221204 79 354 2.6 2.6 0.00 0.00 0.00 81 1046.2
20260905220659 79 319 1.7 4.3 0.00 0.00 0.00 82 1046.1
20260905220155 79 20 0.0 5.2 0.00 0.00 0.00 82 1045.8
20260905215654 79 36 1.7 1.7 0.00 0.00 0.00 81 1046.0
20260905215150 79 316 3.5 4.3 0.00 0.00 0.00 81 1045.8
20260905214646 79 339 0.9 2.6 0.00 0.00 0.00 80 1046.1
20260905214141 79 28 0.0 2.6 0.00 0.00 0.00 79 1046.2
20260905213636 79 4 0.9 1.7 0.00 0.00 0.00 80 1046.2
20260905213132 80 261 2.6 2.6 0.00 0.00 0.00 78 1046.1
20260905212627 79 15 0.0 1.7 0.00 0.00 0.00 79 1045.9
20260905212126 79 36 0.0 0.9 0.00 0.00 0.00 80 1046.2
20260905211621 79 286 1.7 2.6 0.00 0.00 0.00 78 1046.2
20260905211117 80 19 0.9 1.7 0.00 0.00 0.00 80 1046.2
20260905210613 79 32 0.0 0.9 0.00 0.00 0.00 80 1046.3
20260905210108 79 335 1.7 1.7 0.00 0.00 0.00 79 1046.4
20260905205607 79 355 0.9 1.7 0.00 0.00 0.00 81 1046.5
20260905205107 79 18 0.9 2.6 0.00 0.00 0.00 82 1046.3
20260905204606 79 7 0.9 2.6 0.00 0.00 0.00 82 1046.2
20260905204101 79 277 0.9 2.6 0.00 0.00 0.00 81 1046.6
20260905203556 79 19 0.0 1.7 0.00 0.00 0.00 81 1046.4
20260905203051 80 344 1.7 2.6 0.00 0.00 0.00 79 1046.5
20260905202547 80 8 0.9 1.7 0.00 0.00 0.00 78 1046.5
20260905202042 81 28 1.7 2.6 0.00 0.00 0.00 77 1046.4
20260905201538 81 14 0.9 2.6 0.00 0.00 0.00 77 1046.3
20260905201037 80 334 0.9 2.6 0.00 0.00 0.00 79 1046.2
20260905200533 81 278 1.7 4.3 0.00 0.00 0.00 79 1046.2
20260905200032 81 299 3.5 4.3 0.00 0.00 0.00 79 1046.2
20260905195526 80 244 3.5 5.2 0.00 0.00 0.00 81 1046.3
20260905195022 81 266 3.5 5.2 0.00 0.00 0.00 80 1046.0
20260905194521 80 282 1.7 4.3 0.00 0.00 0.00 82 1046.4
20260905194015 81 261 1.7 6.1 0.00 0.00 0.00 82 1046.2
20260905193510 81 8 0.9 6.1 0.00 0.00 0.00 81 1046.2
20260905193006 81 293 1.7 4.3 0.00 0.00 0.00 82 1046.5
20260905192501 81 306 1.7 4.3 0.00 0.00 0.00 82 1046.5
20260905191957 80 20 1.7 5.2 0.00 0.00 0.00 83 1046.3
20260905191455 82 300 0.9 2.6 0.00 0.00 0.00 81 1046.5
20260905190954 80 32 0.9 2.6 0.00 0.00 0.00 82 1046.2
20260905190452 80 338 0.9 4.3 0.00 0.00 0.00 82 1046.2
20260905185951 82 315 1.7 2.6 0.00 0.00 0.00 81 1046.2
20260905185447 80 15 0.9 2.6 0.00 0.00 0.00 81 1046.5
20260905184945 79 28 0.9 1.7 0.00 0.00 0.00 84 1046.4
20260905184440 79 2 1.7 4.3 0.00 0.00 0.00 84 1046.4
20260905183939 80 334 0.9 0.9 0.00 0.00 0.00 83 1046.5
20260905183433 79 26 0.0 1.7 0.00 0.00 0.00 88 1046.5
20260905182929 77 23 0.0 1.7 0.00 0.00 0.00 88 1046.8
20260905182428 78 31 0.9 2.6 0.00 0.00 0.00 88 1046.8
20260905181924 78 25 0.9 0.9 0.00 0.00 0.00 88 1046.8
20260905181418 77 44 0.0 2.6 0.00 0.00 0.00 89 1046.7
20260905180917 76 12 0.0 1.7 0.00 0.00 0.00 90 1046.8
20260905180413 76 303 0.9 1.7 0.00 0.00 0.00 91 1046.9
20260905175913 76 344 0.9 0.9 0.00 0.00 0.00 90 1046.7
20260905175412 76 21 1.7 1.7 0.00 0.00 0.00 91 1047.0
20260905174907 75 344 0.9 1.7 0.00 0.00 0.00 92 1046.9
20260905174403 75 310 0.9 1.7 0.00 0.00 0.00 92 1047.0
20260905173858 75 322 1.7 2.6 0.00 0.00 0.00 92 1046.9
20260905173355 75 28 0.0 1.7 0.00 0.00 0.00 92 1047.1
20260905172849 75 352 0.9 1.7 0.00 0.00 0.00 91 1047.2
20260905172347 75 29 0.9 1.7 0.00 0.00 0.00 91 1047.1
20260905171843 75 43 0.9 2.6 0.00 0.00 0.00 91 1047.1
20260905171340 75 350 0.9 1.7 0.00 0.00 0.00 91 1046.9
20260905170836 75 45 0.9 2.6 0.00 0.00 0.00 91 1046.8
20260905170332 75 257 0.9 2.6 0.00 0.00 0.00 91 1047.1
20260905165831 75 315 0.9 2.6 0.00 0.00 0.00 92 1047.1
20260905165327 75 24 0.0 4.3 0.00 0.00 0.00 92 1047.1
20260905164826 74 7 0.9 1.7 0.00 0.00 0.00 92 1047.1
20260905164321 74 309 1.7 1.7 0.00 0.00 0.00 92 1047.5
20260905163817 74 348 0.9 1.7 0.00 0.00 0.00 93 1047.4
20260905163313 74 292 2.6 4.3 0.00 0.00 0.00 93 1047.5
20260905162809 74 313 0.9 4.3 0.00 0.00 0.00 93 1047.2
20260905162305 74 354 0.9 1.7 0.00 0.00 0.00 93 1047.2
20260905161757 74 346 0.9 2.6 0.00 0.00 0.00 93 1047.0
20260905161256 74 269 1.7 2.6 0.00 0.00 0.00 93 1047.2
20260905160755 74 326 2.6 2.6 0.00 0.00 0.00 93 1047.4
20260905160249 75 333 0.0 0.9 0.00 0.00 0.00 93 1047.0
20260905155744 74 350 0.9 2.6 0.00 0.00 0.00 93 1047.0
20260905155243 74 11 0.9 2.6 0.00 0.00 0.00 93 1047.0
20260905154737 74 339 0.9 1.7 0.00 0.00 0.00 93 1047.0
20260905154233 74 7 0.9 1.7 0.00 0.00 0.00 93 1046.8
20260905153728 74 348 0.9 1.7 0.00 0.00 0.00 94 1046.9
20260905153224 74 25 0.0 0.9 0.00 0.00 0.00 94 1046.8
20260905152719 74 337 0.0 0.9 0.00 0.00 0.00 94 1047.0
20260905152219 74 17 0.0 0.9 0.00 0.00 0.00 94 1046.9